Lapse_Rate
7.7 7.6 7.5 7.4 7.2 7.2 7.2 7.4 7.1 6.5 6.7 7.1 6.8 6.2 6.6 6.4 6.5 6.4 6.7 6.7 6.5 6.4 6.3 6.1 5.9 5.6 5.6 5.3 4.7 4.8 5.1 5.0 5.4 5.3 4.7 4.8 5.2 5.5 5.0 5.0 5.4 5.6 5.9
7.8 7.7 7.7 7.6 7.6 7.5 7.1 7.4 7.0 7.2 6.4 6.5 6.5 5.7 5.7 5.9 6.5 6.5 6.6 6.2 6.0 6.1 6.2 5.9 6.0 5.8 5.5 5.2 5.2 5.1 4.8 4.5 4.5 5.1 5.4 5.4 5.5 5.2 5.2 5.1 5.5 5.8 6.0
7.9 8.0 7.9 7.8 7.8 7.7 7.1 7.1 7.2 6.9 6.7 6.5 6.5 6.1 5.1 4.7 6.1 6.1 6.3 6.4 6.1 5.6 5.9 5.7 6.0 5.7 5.2 5.4 5.4 5.1 5.0 5.0 4.8 4.8 5.2 5.6 5.6 5.3 4.9 5.2 5.5 5.9 6.1
8.3 8.3 8.1 8.1 8.1 7.8 7.3 7.2 6.9 7.1 6.7 6.8 6.8 6.7 5.9 5.9 5.9 6.1 6.3 6.3 5.9 5.7 5.5 5.4 5.6 5.7 5.5 5.2 5.4 5.6 5.5 5.3 5.1 4.7 4.7 5.2 5.4 5.6 4.9 5.4 5.1 5.2 6.0
8.4 8.4 8.3 8.0 7.8 7.5 7.2 7.2 7.2 7.5 7.3 6.5 6.4 6.6 5.8 5.6 5.7 5.8 5.9 5.7 5.4 5.4 5.6 5.3 5.4 5.6 5.5 5.3 5.6 5.3 5.0 5.0 5.1 4.6 4.8 5.1 5.1 5.0 5.5 5.5 5.7 6.0 6.3
8.4 8.2 8.1 8.0 7.7 7.6 7.7 7.8 7.7 7.8 7.3 6.5 6.5 6.6 6.0 5.4 5.4 5.4 5.6 5.3 5.4 5.5 5.6 5.4 5.2 5.3 5.2 5.0 5.2 5.2 5.0 5.1 5.2 5.2 5.4 5.5 5.5 5.5 5.8 6.0 6.3 6.0 6.2
8.4 8.3 8.2 7.9 8.0 8.1 8.3 8.4 8.5 8.1 7.3 6.9 6.6 6.4 6.4 6.0 6.1 5.4 5.5 5.3 5.1 5.1 5.3 5.2 5.0 5.2 5.4 5.3 5.2 4.9 5.5 5.4 5.2 5.1 5.1 5.2 5.3 5.5 6.0 6.2 6.4 6.2 6.1
8.4 8.2 8.1 8.2 8.3 8.2 8.2 8.3 8.1 7.8 7.4 7.1 6.9 6.5 6.5 6.2 6.2 5.5 5.7 5.2 5.2 5.4 5.4 4.9 4.9 5.2 5.5 5.5 5.5 5.4 5.5 5.4 5.5 5.4 5.2 5.1 5.3 5.5 5.6 5.9 6.2 6.2 6.4
8.4 8.3 8.5 8.2 8.2 8.2 8.2 8.1 8.1 7.7 7.5 7.4 6.8 6.6 6.6 6.6 6.3 6.1 5.8 5.6 5.7 5.3 5.1 4.9 5.0 5.1 5.3 5.1 5.4 5.3 5.5 5.6 5.3 5.5 5.8 5.5 5.3 5.6 5.7 5.9 6.0 6.1 6.2
8.4 8.3 8.1 7.9 7.8 7.8 7.5 7.9 8.0 7.7 7.2 7.2 6.8 6.8 6.7 6.6 6.1 5.8 5.7 5.7 5.5 5.1 5.0 4.8 5.1 5.0 5.0 5.1 5.1 5.3 5.6 5.5 5.5 5.7 5.6 5.6 5.8 6.2 6.1 6.1 6.0 6.0 5.4
8.2 8.0 7.8 7.4 7.2 7.5 7.9 7.8 8.1 7.5 7.0 7.2 6.9 7.0 6.9 6.4 5.9 5.9 5.9 5.9 5.6 5.3 5.7 5.6 5.4 5.5 5.1 5.3 5.2 5.6 5.6 5.6 5.7 5.9 5.9 6.1 6.2 6.2 6.1 6.0 5.9 5.7 5.7
7.9 7.7 7.4 7.3 7.3 7.8 7.7 7.1 7.4 7.6 7.2 7.0 7.0 6.7 6.5 6.3 5.8 5.8 5.3 5.5 5.4 5.8 5.6 5.4 5.6 5.7 5.5 5.5 5.7 5.8 5.7 5.8 5.8 5.9 5.8 6.1 6.3 6.2 6.1 6.2 6.2 6.1 5.9
7.7 7.5 7.1 7.7 7.7 7.8 7.7 7.3 6.8 7.2 7.1 6.8 6.7 6.5 6.3 5.8 5.8 5.8 6.1 5.8 5.8 5.9 5.7 5.8 5.7 5.7 5.8 6.1 6.2 6.0 6.0 6.1 6.0 5.9 5.9 6.2 6.1 6.2 6.3 6.3 6.6 6.5 6.4
7.7 7.6 7.5 7.5 7.5 7.2 6.6 6.6 6.8 6.9 6.8 6.5 6.3 6.2 6.0 5.9 5.8 5.6 6.0 6.0 5.7 6.0 6.2 6.1 6.0 5.9 6.3 6.4 6.3 6.2 6.2 6.1 5.9 5.8 6.2 6.3 6.3 6.4 6.4 6.2 6.5 6.5 6.5
7.2 7.5 7.3 7.3 7.0 6.8 6.6 6.5 6.4 6.3 6.5 6.3 6.2 6.2 6.4 5.8 6.1 6.1 6.2 6.2 6.2 6.3 6.1 6.0 6.1 6.2 6.3 6.3 6.3 6.2 6.2 6.0 6.0 6.2 6.3 6.5 6.6 6.4 6.5 6.3 6.4 6.5 6.3
7.7 7.6 6.9 6.8 6.7 6.4 6.6 6.5 6.3 6.4 6.1 6.0 6.1 6.1 6.0 6.0 6.1 6.3 6.4 6.6 6.5 6.3 6.1 6.0 6.1 6.3 6.4 6.3 6.3 6.2 6.1 6.2 6.3 6.3 6.3 6.6 6.7 6.5 6.6 6.5 6.5 6.4 6.0
6.8 6.7 6.6 6.4 6.7 6.9 6.6 6.4 6.2 6.1 6.0 5.9 5.9 5.9 6.1 6.3 6.5 6.8 6.7 6.4 6.3 6.2 6.5 6.4 6.6 6.5 6.5 6.5 6.4 6.3 6.2 6.3 6.3 6.2 6.4 6.6 6.7 6.6 6.5 6.5 6.6 6.4 5.9
6.6 6.3 6.2 6.4 6.4 6.4 6.3 6.0 6.0 6.0 5.8 5.8 6.0 6.1 6.2 6.4 6.6 6.4 6.4 6.4 6.6 6.9 6.8 6.7 6.6 6.6 6.6 6.7 6.7 6.5 6.5 6.4 6.4 6.4 6.5 6.6 6.7 6.6 6.5 6.5 6.5 6.3 5.9
6.2 6.3 6.3 6.3 6.3 6.2 6.1 6.3 6.2 6.2 6.2 6.3 6.4 6.4 6.4 6.3 6.3 6.5 6.7 7.0 7.0 6.9 6.9 6.8 6.6 6.6 6.8 6.8 6.7 6.6 6.6 6.5 6.5 6.5 6.5 6.5 6.5 6.4 6.4 6.5 6.4 6.1 5.7
6.0 6.0 6.1 6.1 6.1 5.9 5.9 6.0 6.3 6.4 6.6 6.6 6.5 6.5 6.4 6.5 6.6 6.7 7.0 7.2 7.1 7.0 7.0 6.9 7.0 7.0 6.8 6.8 6.7 6.7 6.7 6.7 6.7 6.6 6.5 6.5 6.4 6.4 6.5 6.4 6.3 6.1 6.0
6.0 6.0 5.9 5.9 6.0 6.1 6.3 6.3 6.6 6.7 6.6 6.6 6.4 6.5 6.6 6.5 6.5 6.6 6.7 6.9 6.9 7.0 6.9 6.9 7.0 7.0 6.9 6.8 6.8 6.9 6.8 6.7 6.6 6.5 6.5 6.5 6.4 6.4 6.4 6.4 6.3 6.1 6.0
5.9 5.9 5.9 5.9 6.1 6.1 6.4 6.4 6.5 6.6 6.7 6.6 6.5 6.6 6.3 6.3 6.2 6.5 6.3 6.4 6.6 6.7 6.7 6.9 6.9 6.9 6.9 6.9 6.9 6.9 6.8 6.7 6.5 6.4 6.4 6.4 6.4 6.4 6.3 6.2 6.2 6.0 6.0
5.5 5.7 5.7 5.9 5.9 6.0 6.1 5.9 6.2 6.4 6.1 5.8 6.0 6.1 6.2 6.3 6.1 6.2 6.1 6.1 6.2 6.3 6.4 6.5 6.7 6.7 6.7 6.7 6.8 6.8 6.7 6.6 6.5 6.4 6.3 6.3 6.3 6.2 6.2 6.1 6.0 5.9 5.8
5.6 5.6 5.8 5.9 6.0 6.0 6.0 6.0 6.1 6.1 6.1 6.2 5.9 6.0 6.0 5.9 5.7 5.5 5.7 5.9 6.1 6.2 6.2 6.3 6.5 6.5 6.5 6.6 6.7 6.7 6.6 6.6 6.6 6.4 6.3 6.3 6.2 6.1 6.1 6.1 6.0 5.9 5.8
5.7 5.9 5.9 5.3 6.0 6.1 6.1 6.2 6.1 6.1 6.0 6.1 6.1 6.0 5.3 5.0 5.0 4.7 5.5 5.9 6.1 6.1 6.3 6.3 6.2 6.2 6.4 6.5 6.6 6.6 6.6 6.6 6.6 6.5 6.5 6.4 6.3 6.1 6.1 6.1 6.0 6.0 5.8
5.7 6.0 5.9 5.7 5.7 6.3 6.2 6.3 6.3 6.3 5.7 5.9 5.5 5.1 5.0 4.9 4.8 4.6 4.9 5.7 6.0 6.2 6.2 6.3 6.2 6.1 6.2 6.4 6.5 6.6 6.5 6.5 6.6 6.6 6.5 6.5 6.4 6.4 6.3 6.3 6.2 6.2 6.0
Wind_Speed
20 18 16 16 17 14 14 14 14 12 10 10 11 8 8 10 10 10 9 8 8 8 8 8 9 9 8 8 5 7 8 8 10 10 9 10 8 10 11 15 17 18 19
20 18 19 17 17 17 16 15 14 14 13 11 8 8 12 12 11 11 11 9 9 9 9 9 9 8 9 8 9 9 9 9 10 13 12 11 11 11 11 12 13 20 20
18 19 18 18 18 19 18 16 15 14 14 11 12 12 11 12 12 12 12 9 10 11 10 10 11 10 10 9 8 9 9 7 9 9 12 12 12 11 11 10 11 12 20
19 19 17 18 19 20 18 18 17 17 17 16 14 12 13 14 13 14 13 12 12 12 11 11 11 11 11 10 9 9 9 9 11 11 10 10 11 11 5 8 11 11 12
17 17 17 15 17 18 17 18 17 18 17 13 8 10 12 13 12 14 13 11 12 12 12 11 12 11 7 7 8 10 9 10 11 12 12 11 11 8 10 11 13 12 14
16 17 15 16 17 18 19 18 17 17 16 12 12 12 14 11 12 12 12 12 12 12 11 12 10 6 9 10 10 11 11 11 11 11 12 12 12 12 12 11 12 13 15
16 15 16 16 17 18 18 19 17 18 15 13 11 13 14 14 10 14 15 13 11 10 8 8 9 7 8 9 11 12 12 15 15 10 12 13 13 13 13 10 13 14 15
16 16 16 16 16 16 17 19 19 17 17 14 13 12 13 12 12 13 10 11 10 7 3 1 6 10 12 10 8 11 11 11 10 10 10 12 12 12 13 13 14 15 14
15 15 15 15 14 14 16 17 16 15 14 12 11 13 11 15 11 16 15 12 9 7 4 4 3 5 9 3 9 10 11 11 8 12 12 15 19 20 18 10 11 10 12
15 14 13 12 12 12 12 12 13 15 12 12 12 11 10 14 14 15 14 8 9 6 5 6 9 7 5 8 9 10 10 10 9 11 12 13 18 15 22 13 9 10 12
12 11 11 12 13 10 13 10 12 13 9 12 13 9 11 11 12 15 12 9 8 8 5 4 7 14 9 8 9 8 7 7 9 11 12 10 9 10 8 6 9 12 13
13 12 10 8 6 7 9 10 9 8 8 10 11 8 6 11 10 13 14 6 4 6 7 5 2 8 8 9 8 2 2 5 9 10 10 10 9 9 10 10 12 12 14
12 11 10 10 8 5 7 8 7 7 6 6 6 6 7 5 6 8 7 5 7 6 5 9 12 8 7 9 10 6 6 8 8 9 9 9 8 10 12 13 12 12 13
10 9 8 8 9 5 4 4 4 4 4 4 5 6 3 3 3 4 5 6 7 8 5 4 3 1 1 2 7 8 8 6 6 7 8 8 9 10 11 11 11 11 11
11 10 9 8 8 7 7 4 1 5 3 5 5 4 5 7 5 5 3 7 6 3 4 5 6 7 7 7 6 6 5 5 6 6 7 8 9 10 11 10 11 10 10
11 9 8 9 8 8 7 6 12 9 5 5 5 2 3 8 9 10 10 11 10 6 4 7 7 6 6 6 5 5 5 4 5 6 8 8 9 9 10 11 9 10 10
9 9 7 6 6 7 6 6 7 6 10 11 10 11 11 11 10 9 9 8 5 5 7 7 6 5 5 4 5 5 5 5 5 7 7 8 8 8 9 10 10 9 11
9 5 6 5 6 6 6 5 5 5 6 6 9 8 10 10 9 9 9 8 4 6 6 6 5 4 4 5 5 5 5 5 5 6 7 6 7 8 9 9 10 10 12
8 6 6 7 7 7 7 6 6 7 7 8 8 6 6 6 8 7 8 5 4 5 4 4 4 4 4 4 4 5 5 5 5 6 6 5 6 8 8 9 9 8 8
4 5 6 6 7 7 7 7 7 7 8 8 9 9 10 9 6 6 3 1 3 4 2 4 2 2 3 4 5 5 5 4 4 5 4 5 6 7 8 10 9 10 9
7 8 1 6 7 6 6 7 7 7 7 7 7 7 8 7 5 4 3 3 3 2 2 3 2 3 3 4 5 4 3 3 3 4 5 5 6 7 8 8 9 10 9
6 8 7 6 5 6 6 6 6 7 7 7 7 8 6 7 4 4 4 3 2 2 2 3 4 3 3 4 4 3 2 2 3 4 5 6 6 7 7 8 8 9 9
5 5 4 3 4 4 5 6 6 7 7 7 6 8 9 7 6 5 5 4 3 3 2 3 3 3 2 3 3 1 3 3 3 4 5 6 6 7 7 7 8 9 9
3 4 4 4 5 6 6 6 6 4 6 8 8 6 8 9 8 6 6 5 4 4 4 4 4 3 3 4 4 4 2 4 6 5 6 6 6 6 7 7 7 8 8
3 3 5 5 5 7 5 6 7 8 8 8 7 9 8 6 5 6 6 6 6 5 5 5 5 5 6 5 3 2 9 4 6 10 9 6 6 7 6 6 7 6 8
0 2 3 4 4 4 5 6 5 9 9 8 9 9 7 6 6 5 6 6 6 7 5 5 5 5 6 8 6 7 4 0 4 7 9 7 5 5 7 6 7 6 7
Wind_Direction
202 199 201 200 197 193 199 196 183 188 175 179 178 177 201 213 209 221 243 255 230 240 253 257 258 265 269 277 263 269 271 281 285 291 303 299 301 266 282 284 286 287 282
202 197 198 194 191 194 194 188 182 172 178 176 198 167 194 212 221 219 232 242 235 243 249 250 257 256 251 256 269 265 281 291 284 292 297 294 287 291 281 287 290 293 289
202 201 200 195 193 194 195 180 178 169 175 180 182 191 209 205 213 218 225 231 236 243 239 244 254 257 260 269 284 286 275 253 261 269 285 291 297 290 280 277 272 282 277
199 203 199 194 196 200 187 180 181 178 183 198 201 183 194 198 209 219 215 221 230 238 241 241 249 254 259 268 266 271 272 274 273 277 276 280 284 287 248 268 278 292 298
202 201 201 199 203 206 194 185 183 185 189 206 195 195 202 214 211 216 222 220 236 240 246 248 243 248 268 282 278 283 301 282 288 294 298 292 274 310 308 303 298 302 294
195 201 194 194 203 207 200 198 190 192 193 194 189 205 216 217 204 196 212 222 229 242 251 262 263 241 238 235 243 255 271 274 278 281 287 294 293 290 291 300 306 295 295
195 190 194 197 203 210 203 201 194 200 202 210 203 215 222 228 202 193 203 225 235 251 265 280 287 272 266 265 223 223 237 235 236 271 279 281 292 290 304 300 287 291 285
186 191 192 193 203 204 205 202 203 206 211 213 212 227 240 238 197 206 183 221 222 227 156 7 318 300 286 259 259 269 272 274 248 241 269 286 289 297 297 292 290 288 284
187 191 188 194 201 201 204 206 210 206 211 212 220 229 235 241 175 168 179 208 204 203 188 194 211 289 306 207 261 271 279 281 265 215 237 256 259 260 260 285 283 282 285
183 186 184 187 199 202 210 214 201 208 214 218 212 218 222 240 171 174 190 204 202 200 188 187 184 210 248 212 257 269 273 279 292 303 291 263 245 254 236 238 256 266 279
167 162 167 180 189 188 196 211 202 210 218 216 229 234 229 228 210 181 202 194 227 229 217 219 245 212 186 209 236 265 285 333 292 277 277 285 289 282 280 276 282 290 294
151 153 162 164 178 191 185 203 203 195 216 236 232 236 237 236 210 186 188 222 226 215 239 258 119 146 170 201 221 97 2 283 269 277 289 290 300 303 304 311 302 283 285
142 141 147 150 164 162 182 190 196 198 212 226 231 228 231 196 161 132 171 172 207 239 250 88 107 134 186 212 226 223 240 252 272 287 290 298 307 308 300 282 284 288 279
124 132 133 140 115 154 188 202 209 187 209 228 227 213 176 165 99 183 160 166 178 200 154 177 134 243 240 331 168 211 236 273 301 293 290 301 300 296 300 304 308 309 311
133 131 115 106 111 101 81 21 14 69 23 244 176 181 187 191 185 128 200 187 183 120 176 214 216 218 228 223 233 250 266 268 275 291 298 302 303 304 307 314 311 314 321
120 133 140 144 161 165 157 132 54 39 20 31 37 48 63 80 103 83 66 58 58 75 227 253 248 247 260 272 270 273 272 240 282 303 296 304 305 310 319 313 321 320 323
128 131 140 153 155 153 160 165 151 96 75 54 46 53 63 101 88 98 109 117 153 187 239 255 259 269 261 266 275 284 288 309 321 278 301 302 308 313 318 327 330 329 328
115 68 148 142 158 161 166 174 167 163 150 125 54 76 86 106 119 135 158 183 184 214 263 283 276 258 264 267 278 286 299 294 290 298 298 305 314 326 326 335 333 341 337
153 156 154 155 157 157 171 169 177 168 159 147 138 136 126 133 148 167 193 267 301 297 280 272 274 272 262 275 283 288 294 291 318 301 299 317 328 327 334 337 333 336 338
134 86 179 165 153 168 167 176 173 172 169 172 179 162 162 179 185 187 202 244 293 298 295 276 269 280 277 278 287 283 272 261 281 292 323 326 334 329 340 337 340 336 344
165 155 143 159 172 174 177 185 178 179 185 183 188 156 159 201 200 192 213 192 248 250 248 269 227 261 258 261 275 267 263 289 300 319 327 333 335 335 337 336 341 342 359
182 161 187 184 165 177 184 187 188 195 190 186 184 125 124 227 217 196 216 213 213 238 265 235 245 263 298 281 267 262 268 302 340 340 332 331 331 342 335 341 348 347 349
200 176 203 190 199 126 183 204 199 203 198 194 183 160 187 216 232 214 211 225 207 222 212 223 216 253 230 237 234 249 298 9 352 341 332 329 328 358 332 346 351 354 354
167 204 201 191 206 206 207 201 212 219 194 188 197 188 198 210 228 206 223 209 206 201 195 208 224 242 184 230 210 207 212 16 334 326 330 327 331 346 344 351 353 360 354
189 202 217 200 195 223 199 233 211 196 191 199 195 213 211 201 208 204 200 210 200 204 195 202 209 185 204 213 235 241 86 47 336 331 298 325 337 322 352 352 350 1 7
154 224 244 220 208 225 243 220 207 211 197 206 213 213 213 215 215 212 202 214 206 205 204 198 188 207 183 192 195 104 107 290 314 320 312 302 332 3 338 0 355 360 18